Volver al catálogo

COSMOS 1027

ActivoMilitarPO
NORAD 10991·PAYLOAD·🇷🇺 Russia

Lanzado Jul 27, 1978 desde Plesetsk Cosmodrome

Loading…

Próximos Pases (próximas 24 horas)

TLE

ActualizadoSource: Space-Track

Época: Sep 14, 2026, 14:04 UTC

1 10991U 78074A   26257.58630082  .00000058  00000-0  43269-4 0  9991
2 10991  82.9368 310.7622 0027703 135.7459  29.0092 13.76701872417402

Sigue COSMOS 1027 en tiempo real con AllMySat

Download on the App Store